Change the Weather History Date:

Friday, November 25, 2011

  Actual Average (KAZE) Record (KAZE)
Temperature  
Mean Temperature 53 °F -  
Max Temperature 71 °F 73 °F 91 °F (2014)
Min Temperature 35 °F 43 °F 33 °F (2013)
Degree Days  
Heating Degree Days 12    
Growing Degree Days 3 (Base 50)    
Moisture  
Dew Point 44 °F    
Average Humidity 74    
Maximum Humidity 100    
Minimum Humidity 46    
Precipitation  
Precipitation 0.00 in - - ()
Sea Level Pressure  
Sea Level Pressure 30.32 in    
Wind  
Wind Speed 2 mph (East)    
Max Wind Speed 8 mph    
Max Gust Speed -    
Visibility 10 miles    
Events      
Averages and records for this station are not official NWS values.
T = Trace of Precipitation, MM = Missing Value Source: NWS Daily Summary

Daily Weather History Graph

Daily Weather History Graph

Search for Another Location

Airport or City:

Trip Planner

Search our weather history database for the weather conditions in past years. The results will help you decide how hot, cold, wet, or windy it might be!

Date:

Astronomy

Nov. 25, 2011 Rise Set
Actual Time 7:07 AM EST 5:25 PM EST
Civil Twilight 6:40 AM EST 5:51 PM EST
Nautical Twilight 6:10 AM EST 6:21 PM EST
Astronomical Twilight 5:41 AM EST 6:51 PM EST
Moon 7:30 AM EST (11/25) 5:55 PM EST (11/25)
Length of Visible Light 11h 11m
Length of Day
10h 18m
New Moon, 0% of the Moon is Illuminated
Nov 25
New Moon
Dec 2
First Quarter
Dec 10
Full
Dec 17
Last Quarter
Dec 24
New

Hourly Weather History & Observations

Time (EST) Temp. Windchill Dew Point Humidity Pressure Visibility Wind Dir Wind Speed Gust Speed Precip Events Conditions
12:15 AM 41.0 °F - 37.4 °F 87% 30.35 in 10.0 mi Calm Calm - N/A   Clear
12:35 AM 41.0 °F - 35.6 °F 81% 30.35 in 10.0 mi Calm Calm - N/A   Clear
12:55 AM 41.0 °F - 35.6 °F 81% 30.36 in 10.0 mi Calm Calm - N/A   Clear
1:55 AM 37.4 °F - 35.6 °F 93% 30.36 in 10.0 mi Calm Calm - N/A   Clear
2:35 AM 37.4 °F - 35.6 °F 93% 30.37 in 10.0 mi Calm Calm - N/A   Clear
2:55 AM 37.4 °F - 35.6 °F 93% 30.37 in 10.0 mi Calm Calm - N/A   Clear
3:15 AM 37.4 °F - 35.6 °F 93% 30.36 in 10.0 mi Calm Calm - N/A   Clear
3:35 AM 35.6 °F - 33.8 °F 93% 30.36 in 10.0 mi Calm Calm - N/A   Clear
3:55 AM 35.6 °F - 33.8 °F 93% 30.35 in 10.0 mi Calm Calm - N/A   Clear
4:15 AM 37.4 °F - 35.6 °F 93% 30.35 in 10.0 mi Calm Calm - N/A   Clear
4:35 AM 35.6 °F - 35.6 °F 100% 30.35 in 10.0 mi Calm Calm - N/A   Clear
4:55 AM 35.6 °F - 33.8 °F 93% 30.35 in 10.0 mi Calm Calm - N/A   Clear
5:15 AM 35.6 °F - 33.8 °F 93% 30.35 in 10.0 mi Calm Calm - N/A   Clear
5:55 AM 35.6 °F 32.8 °F 33.8 °F 93% 30.36 in 10.0 mi NNW 3.5 mph - N/A   Clear
6:15 AM 35.6 °F - 33.8 °F 93% 30.36 in 10.0 mi Calm Calm - N/A   Clear
6:35 AM 35.6 °F 32.8 °F 33.8 °F 93% 30.36 in 10.0 mi NNW 3.5 mph - N/A   Clear
6:55 AM 37.4 °F 34.9 °F 33.8 °F 87% 30.37 in 10.0 mi North 3.5 mph - N/A   Clear
7:15 AM 37.4 °F - 33.8 °F 87% 30.37 in 10.0 mi Calm Calm - N/A   Clear
7:35 AM 37.4 °F 34.9 °F 35.6 °F 93% 30.37 in 10.0 mi NE 3.5 mph - N/A   Clear
8:15 AM 44.6 °F - 41.0 °F 87% 30.37 in 10.0 mi Calm Calm - N/A   Clear
8:35 AM 48.2 °F - 41.0 °F 76% 30.38 in 10.0 mi ENE 4.6 mph - N/A   Clear
8:55 AM 51.8 °F - 41.0 °F 67% 30.38 in 10.0 mi East 5.8 mph - N/A   Clear
9:15 AM 53.6 °F - 41.0 °F 62% 30.38 in 10.0 mi East 8.1 mph - N/A   Clear
9:55 AM 59.0 °F - 41.0 °F 51% 30.39 in 10.0 mi ENE 8.1 mph - N/A   Clear
10:15 AM 59.0 °F - 41.0 °F 51% 30.39 in 10.0 mi East 8.1 mph - N/A   Clear
10:55 AM 62.6 °F - 42.8 °F 48% 30.38 in 10.0 mi East 6.9 mph - N/A   Clear
11:15 AM 62.6 °F - 42.8 °F 48% 30.38 in 10.0 mi NNE 3.5 mph - N/A   Clear
11:35 AM 64.4 °F - 44.6 °F 49% 30.37 in 10.0 mi NE 3.5 mph - N/A   Clear
12:15 PM 66.2 °F - 44.6 °F 46% 30.34 in 10.0 mi Calm Calm - N/A   Clear
12:35 PM 68.0 °F - 46.4 °F 46% 30.33 in 10.0 mi East 8.1 mph - N/A   Clear
1:15 PM 68.0 °F - 46.4 °F 46% 30.31 in 10.0 mi NE 4.6 mph - N/A   Clear
1:55 PM 69.8 °F - 48.2 °F 46% 30.29 in 10.0 mi East 4.6 mph - N/A   Clear
2:15 PM 69.8 °F - 50.0 °F 49% 30.29 in 10.0 mi East 6.9 mph - N/A   Clear
2:35 PM 69.8 °F - 50.0 °F 49% 30.28 in 10.0 mi SE 3.5 mph - N/A   Clear
2:55 PM 71.6 °F - 50.0 °F 46% 30.28 in 10.0 mi ESE 5.8 mph - N/A   Clear
3:15 PM 69.8 °F - 50.0 °F 49% 30.27 in 10.0 mi SE 3.5 mph - N/A   Clear
3:35 PM 69.8 °F - 50.0 °F 49% 30.27 in 10.0 mi SE 3.5 mph - N/A   Scattered Clouds
3:55 PM 68.0 °F - 50.0 °F 52% 30.27 in 10.0 mi ESE 4.6 mph - N/A   Scattered Clouds
4:15 PM 69.8 °F - 50.0 °F 49% 30.26 in 10.0 mi East 6.9 mph - N/A   Scattered Clouds
4:55 PM 68.0 °F - 50.0 °F 52% 30.26 in 10.0 mi ESE 3.5 mph - N/A   Scattered Clouds
5:15 PM 64.4 °F - 50.0 °F 59% 30.26 in 10.0 mi Calm Calm - N/A   Scattered Clouds
5:35 PM 62.6 °F - 50.0 °F 63% 30.25 in 10.0 mi East 3.5 mph - N/A   Clear
5:55 PM 60.8 °F - 51.8 °F 72% 30.26 in 10.0 mi ESE 3.5 mph - N/A   Clear
6:15 PM 60.8 °F - 51.8 °F 72% 30.26 in 10.0 mi Calm Calm - N/A   Clear
6:35 PM 59.0 °F - 51.8 °F 77% 30.26 in 10.0 mi Calm Calm - N/A   Clear
6:55 PM 59.0 °F - 51.8 °F 77% 30.26 in 10.0 mi Calm Calm - N/A   Clear
7:15 PM 57.2 °F - 51.8 °F 82% 30.27 in 10.0 mi ESE 3.5 mph - N/A   Clear
8:15 PM 57.2 °F - 51.8 °F 82% 30.28 in 10.0 mi ESE 4.6 mph - N/A   Clear
8:35 PM 57.2 °F - 51.8 °F 82% 30.28 in 10.0 mi SE 3.5 mph - N/A   Clear
8:55 PM 57.2 °F - 51.8 °F 82% 30.28 in 10.0 mi SE 3.5 mph - N/A   Clear
9:15 PM 57.2 °F - 51.8 °F 82% 30.29 in 10.0 mi Calm Calm - N/A   Clear
9:55 PM 55.4 °F - 51.8 °F 88% 30.30 in 10.0 mi SE 3.5 mph - N/A   Clear
10:15 PM 53.6 °F - 51.8 °F 94% 30.30 in 10.0 mi Calm Calm - N/A   Clear
10:55 PM 53.6 °F - 51.8 °F 94% 30.30 in 10.0 mi ESE 3.5 mph - N/A   Clear
11:15 PM 53.6 °F - 50.0 °F 88% 30.29 in 10.0 mi East 3.5 mph - N/A   Clear
11:35 PM 51.8 °F - 48.2 °F 88% 30.29 in 10.0 mi East 5.8 mph - N/A   Clear
11:55 PM 51.8 °F - 48.2 °F 88% 30.29 in 10.0 mi East 4.6 mph - N/A   Clear